Find Starlink 35537

NORAD ID: 66234 Int'l Des: 2025-245 Owner: SPXS Country: US Constellation: starlink operational
LEOCIRCULAR

Current View

Loading 3D Globe...

About Starlink 35537

Description loading...

Upcoming Passes

Passes for default location (London). Set your location on the main map for personalized predictions.

Altitude History

Loading altitude history...

Two-Line Element Set

1 66234U 25245A 26146.08968491 .00042042 00000-0 13582-2 0 9996
2 66234 53.1578 283.9002 0001920 75.5400 284.5815 15.31716312 33110
Epoch: May 26, 2026 • Age: 14 hours

Current Status

Altitude 472.4 km
Velocity 7.63 km/s
Sub-Earth Point -6.53°S, 148.87°E
Launch Date Oct 29, 2025
Age 0.5 years
Type internet

Technical Details

Classification Payload
Mass 575.00 kg
Dry Mass 530.00 kg
Total Mass 575.00 kg
Length 0.30 m
Diameter 4.10 m
Span 29.00 m
Shape Box + pan
Manufacturer SPXS
Bus Type Starlink V2MO
Phase Status In Orbit
Owner/State SPXS/US

Most Searched